sat.trackr.live / text

‹ back to catalog

STARLINK-2155

NORAD 48557 · 2021-041E

PAYLOAD ACTIVE UNKNOWN

§ Identity

Operator
Country
US
Launch date
2021-05-15
Launch site
AFETR
Launch vehicle
Mass (kg)
RCS (m²)

Purposes: comms

External: N2YO · Heavens-Above · Gunter

§ Orbital elements

Epoch: 2026-09-19T20:09:13.705344Z

Period
94.01 min
Inclination
53.1581°
Eccentricity
0.0001211
Mean motion
15.31696877 rev/d
Perigee alt
469.9 km
Apogee alt
471.6 km
Semi-major
6,848.9 km
B*
-7.5076e-6
RAAN
303.3144°
Arg perigee
85.5844°
Mean anomaly
274.5295°
Rev number
29,502

§ Raw data

STARLINK-21551 48557U 21041E   26262.83974196 -.00000598  00000+0 -75076-5 0  99952 48557  53.1581 303.3144 0001211  85.5844 274.5295 15.31696877295026

JSON: /api/v1/satellites/48557 · /tle

For live sub-satellite position, see the globe view (requires WebGL).

§ Visibility from observer

Set your observer location to see the next 7 days of passes ≥ 10°. The values pass through the URL so the page stays shareable.

No JS? Fill the form by hand. The geolocation button needs JavaScript.